KE9LZ Weather Reports


time (UTC)temp
F
wind
direction
speed
knots
gust
knots
rain 1hr
in
rain 24hr
in
rain mn
in
humidity
%
barometer
mb
20260509200003 59 298 6.1 19.1 0.00 0.00 0.00 40 1008.6
20260509195003 60 297 11.3 22.6 0.00 0.00 0.00 41 1008.6
20260509194003 60 341 7.8 21.7 0.00 0.00 0.00 42 1008.5
20260509193003 60 308 7.8 21.7 0.00 0.00 0.00 42 1008.3
20260509191003 58 289 7.8 18.2 0.00 0.00 0.00 46 1008.4
20260509190003 59 287 11.3 17.4 0.00 0.00 0.00 45 1008.1
20260509184003 58 280 8.7 19.1 0.00 0.00 0.00 47 1008.1
20260509183003 60 282 5.2 22.6 0.00 0.00 0.00 48 1007.7
20260509181003 58 324 6.1 17.4 0.00 0.00 0.00 52 1007.7
20260509180003 57 254 6.1 21.7 0.00 0.00 0.00 53 1007.5
20260509175003 59 264 7.8 14.8 0.00 0.00 0.00 51 1007.7
20260509174003 57 308 7.8 14.8 0.00 0.00 0.00 55 1007.8
20260509173003 58 289 11.3 20.9 0.00 0.00 0.00 57 1007.5
20260509172003 57 232 7.8 22.6 0.00 0.00 0.00 57 1007.5
20260509171003 56 234 7.8 20.0 0.00 0.00 0.00 59 1007.6
20260509170003 55 302 7.8 20.0 0.00 0.00 0.00 61 1007.6
20260509165003 55 260 9.6 19.1 0.00 0.00 0.00 61 1007.4
20260509163003 54 297 8.7 18.2 0.00 0.00 0.00 61 1007.2
20260509161003 54 274 5.2 18.2 0.00 0.00 0.00 61 1007.4
20260509160003 53 297 10.4 17.4 0.00 0.00 0.00 62 1007.4
20260509155003 53 294 7.0 15.6 0.00 0.00 0.00 62 1007.0
20260509154003 53 288 7.0 15.6 0.00 0.00 0.00 60 1007.1
20260509153004 53 306 3.5 13.0 0.00 0.00 0.00 61 1007.0
20260509152003 53 318 6.1 14.8 0.00 0.00 0.00 57 1006.7
20260509151004 54 318 4.3 11.3 0.00 0.00 0.00 51 1006.8
20260509150003 54 16 3.5 12.2 0.00 0.00 0.00 51 1006.7
20260509145003 54 314 4.3 12.2 0.00 0.00 0.00 51 1006.5
20260509144003 53 245 4.3 8.7 0.00 0.00 0.00 51 1006.8
20260509143003 53 287 6.1 11.3 0.00 0.00 0.00 50 1006.6
20260509142003 53 295 4.3 7.8 0.00 0.00 0.00 50 1006.7
20260509140003 53 271 2.6 12.2 0.00 0.00 0.00 51 1006.5
20260509135003 53 277 1.7 13.9 0.00 0.00 0.00 51 1006.5
20260509134003 53 266 5.2 10.4 0.00 0.00 0.00 51 1006.1
20260509133004 53 354 2.6 7.0 0.00 0.00 0.00 53 1006.2
20260509132003 53 266 4.3 8.7 0.00 0.00 0.00 54 1005.9
20260509131003 52 249 2.6 5.2 0.00 0.00 0.00 54 1005.7
20260509130002 52 191 3.5 7.0 0.00 0.00 0.00 54 1005.5
20260509125003 52 222 2.6 5.2 0.00 0.00 0.00 54 1005.4
20260509123003 52 195 1.7 5.2 0.00 0.00 0.00 56 1005.0
20260509122003 52 191 2.6 4.3 0.00 0.00 0.00 56 1005.1
20260509121003 52 144 2.6 4.3 0.00 0.00 0.00 56 1004.4
20260509120003 52 79 2.6 4.3 0.00 0.00 0.00 56 1003.9
20260509115003 52 225 1.7 5.2 0.00 0.00 0.00 56 1004.2
20260509114003 52 240 1.7 7.0 0.00 0.00 0.00 56 1003.9
20260509113003 52 276 3.5 7.8 0.00 0.00 0.00 56 1003.8
20260509112003 52 180 1.7 5.2 0.00 0.00 0.00 58 1003.7
20260509111003 51 352 2.6 6.1 0.00 0.00 0.00 59 1003.3
20260509110003 51 18 1.7 5.2 0.00 0.00 0.00 64 1003.3
20260509105003 51 187 2.6 6.1 0.00 0.00 0.00 65 1003.1
20260509104003 51 146 2.6 8.7 0.00 0.00 0.00 68 1002.9
20260509103003 51 217 3.5 7.0 0.00 0.00 0.00 70 1002.7
20260509102003 51 173 3.5 5.2 0.00 0.00 0.00 72 1002.6
20260509101004 51 187 1.7 7.0 0.00 0.00 0.00 74 1002.7
20260509100003 51 180 2.6 7.0 0.00 0.00 0.00 73 1002.8
20260509095003 51 206 3.5 7.8 0.00 0.00 0.00 72 1002.9
20260509094003 51 193 4.3 7.0 0.00 0.00 0.00 72 1002.2
20260509092003 52 151 3.5 6.1 0.00 0.00 0.00 70 1002.4
20260509091003 52 185 3.5 5.2 0.00 0.00 0.00 69 1002.6
20260509085003 52 174 4.3 6.1 0.00 0.00 0.00 68 1002.6
20260509084003 51 158 1.7 4.3 0.00 0.00 0.00 68 1002.7
20260509083003 50 124 2.6 4.3 0.00 0.00 0.00 68 1002.7
20260509082003 50 110 2.6 2.6 0.00 0.00 0.00 68 1002.9
20260509081004 50 104 2.6 4.3 0.00 0.00 0.00 67 1003.0
20260509080003 51 119 2.6 5.2 0.00 0.00 0.00 66 1002.9
20260509075003 50 99 2.6 4.3 0.00 0.00 0.00 66 1003.1
20260509074004 51 117 1.7 4.3 0.00 0.00 0.00 65 1003.3
20260509072003 52 123 2.6 5.2 0.00 0.00 0.00 63 1003.5
20260509071003 52 138 2.6 5.2 0.00 0.00 0.00 62 1003.7
20260509063004 53 126 4.3 5.2 0.00 0.00 0.00 56 1004.1
20260509062003 54 140 4.3 6.1 0.00 0.00 0.00 55 1004.4
20260509061003 54 116 4.3 6.1 0.00 0.00 0.00 55 1004.5
20260509060003 54 108 3.5 6.1 0.00 0.00 0.00 54 1004.8
20260509055003 54 115 3.5 6.1 0.00 0.00 0.00 53 1005.1
20260509054003 55 114 3.5 7.0 0.00 0.00 0.00 51 1005.3
20260509053004 55 131 3.5 7.8 0.00 0.00 0.00 51 1005.2
20260509052003 55 88 2.6 12.2 0.00 0.00 0.00 51 1005.3
20260509051003 55 87 3.5 4.3 0.00 0.00 0.00 53 1005.4
20260509050003 55 54 1.7 5.2 0.00 0.00 0.00 51 1005.6
20260509045004 55 139 2.6 6.1 0.00 0.00 0.00 52 1005.6
20260509044003 54 112 3.5 5.2 0.00 0.00 0.00 56 1005.8
20260509043003 55 212 3.5 6.1 0.00 0.00 0.00 54 1005.7
20260509041003 55 61 2.6 4.3 0.00 0.00 0.00 50 1006.1
20260509040004 56 105 0.9 5.2 0.00 0.00 0.00 49 1006.4
20260509034004 54 199 1.7 5.2 0.00 0.00 0.00 47 1006.5
20260509033003 54 98 1.7 4.3 0.00 0.00 0.00 47 1006.6
20260509032003 54 119 2.6 4.3 0.00 0.00 0.00 47 1006.6
20260509031004 54 121 2.6 5.2 0.00 0.00 0.00 47 1006.5
20260509030004 54 134 2.6 5.2 0.00 0.00 0.00 46 1006.6
20260509025003 55 117 2.6 8.7 0.00 0.00 0.00 45 1006.7
20260509024003 56 123 5.2 7.8 0.00 0.00 0.00 44 1006.8
20260509023003 57 100 3.5 5.2 0.00 0.00 0.00 45 1006.7
20260509022003 58 115 2.6 6.1 0.00 0.00 0.00 43 1006.6
20260509021003 60 102 2.6 4.3 0.00 0.00 0.00 40 1006.7
20260509020003 62 115 2.6 4.3 0.00 0.00 0.00 36 1006.7
20260509015004 63 13 0.9 5.2 0.00 0.00 0.00 34 1007.1
20260509014004 64 199 2.6 13.9 0.00 0.00 0.00 32 1007.3
20260509012003 64 303 3.5 8.7 0.00 0.00 0.00 32 1007.1
20260509005004 63 296 1.7 5.2 0.00 0.00 0.00 33 1007.2
20260509004003 64 171 2.6 5.2 0.00 0.00 0.00 32 1007.1
20260509003003 64 171 2.6 8.7 0.00 0.00 0.00 30 1006.8
20260509002003 64 210 0.9 4.3 0.00 0.00 0.00 32 1007.0
20260509001003 64 151 2.6 5.2 0.00 0.00 0.00 31 1007.1
20260509000003 65 157 1.7 4.3 0.00 0.00 0.00 30 1007.1
20260508235003 65 155 2.6 5.2 0.00 0.00 0.00 29 1007.3
20260508234003 65 195 3.5 7.8 0.00 0.00 0.00 27 1007.3
20260508233003 66 217 0.9 5.2 0.00 0.00 0.00 29 1007.3
20260508232003 66 189 2.6 7.0 0.00 0.00 0.00 28 1007.4
20260508231003 66 204 3.5 7.8 0.00 0.00 0.00 27 1007.2
20260508225003 66 211 2.6 13.9 0.00 0.00 0.00 27 1007.5
20260508224004 67 197 4.3 10.4 0.00 0.00 0.00 26 1007.9
20260508223003 67 283 4.3 8.7 0.00 0.00 0.00 27 1008.1
20260508222004 66 234 5.2 11.3 0.00 0.00 0.00 27 1008.0
20260508220003 65 295 2.6 13.9 0.00 0.00 0.00 29 1008.4
20260508215003 65 322 4.3 11.3 0.00 0.00 0.00 29 1008.5
20260508213003 65 270 10.4 14.8 0.00 0.00 0.00 27 1008.4
20260508212003 66 284 5.2 12.2 0.00 0.00 0.00 27 1008.7
20260508211003 65 198 4.3 14.8 0.00 0.00 0.00 27 1008.7
20260508210003 65 218 3.5 8.7 0.00 0.00 0.00 27 1008.6
20260508205003 65 233 5.2 10.4 0.00 0.00 0.00 27 1008.9
20260508204003 65 281 7.0 15.6 0.00 0.00 0.00 26 1009.4
20260508203003 65 288 7.8 15.6 0.00 0.00 0.00 27 1009.4
20260508202003 65 235 7.0 13.9 0.00 0.00 0.00 27 1009.5